Location: North Evanston
(42.0634°N, 87.6976°W)
Time: 06:05:31
(UTC+00:00)

Vanguard 3 - Pass Details

Date: 16 May 2026
Orbit: 507 x 3204 km, 33.3° (Epoch: 8 June)

Event Time Altitude Azimuth Distance (km) Brightness Sun altitude
Rises 01:15:51 0° 280° (W) 6,972 13.6 -2.6°
Reaches altitude 10° 01:21:40 10° 272° (W) 5,685 12.6 -3.6°
Maximum altitude 01:34:32 30° 221° (SW) 3,376 10.4 -5.6°
Drops below altitude 10° 01:43:18 10° 165° (SSE) 3,808 10.1 -7.0°
Enters shadow 01:45:49 - 155° (SSE) 4,312 10.3 -7.4°
